Temp
64 67 68 66 64 65 62 63 56 61 63 70 74 75 77 79 80 78 80 81 82 82 80 79 77 74 66 61 59 58 55 53 51 51 50 50 48 48 48 48 48 48 47 46
58 65 66 62 66 66 66 66 66 66 65 76 78 79 77 77 77 76 75 76 78 80 79 76 72 70 62 59 57 56 54 52 52 50 50 49 49 48 49 48 48 47 45 46
50 62 61 52 60 65 66 69 67 60 68 76 75 75 76 77 75 74 71 70 72 74 73 71 69 65 59 57 56 53 52 52 52 52 50 49 49 48 47 45 45 47 50 50
49 46 39 60 70 70 66 69 72 71 72 75 76 78 76 76 75 71 69 68 69 70 69 69 68 65 61 59 57 56 55 54 53 51 50 50 49 47 45 49 51 53 53 56
45 47 55 62 63 63 63 64 73 72 74 76 78 73 70 72 73 71 69 68 68 68 68 67 67 67 65 63 61 59 56 54 54 54 50 49 46 47 50 50 54 56 56 54
49 43 39 58 68 70 72 56 73 75 73 73 72 61 70 69 69 66 67 67 66 67 67 66 65 65 62 60 59 55 54 54 54 52 53 53 52 54 56 56 55 56 53 53
47 45 54 68 71 71 52 54 74 76 76 74 70 71 69 66 65 66 66 66 66 66 64 64 64 63 59 58 56 56 56 55 54 54 57 56 55 55 54 54 52 49 47 48
48 43 41 68 63 58 66 73 74 76 76 73 71 65 64 64 63 63 63 63 65 63 63 63 64 62 60 58 58 58 57 55 55 55 54 54 53 52 52 51 48 46 43 44
54 54 67 68 70 71 73 70 74 74 77 75 65 63 63 62 62 62 62 63 64 62 60 61 62 62 58 57 56 55 54 53 52 52 52 52 50 49 50 49 46 44 42 41
56 63 67 68 70 72 72 71 75 73 75 73 65 64 62 62 62 61 62 61 62 60 58 57 59 58 57 56 55 54 51 50 50 49 48 49 51 49 48 45 43 40 40 39
58 63 67 68 66 70 72 71 70 72 72 71 66 63 63 62 61 61 59 59 59 57 55 54 54 53 54 54 54 50 49 48 47 46 47 45 46 43 42 38 35 36 37 36
53 65 63 66 65 65 69 70 69 67 67 69 67 64 63 62 61 60 58 58 55 53 52 51 51 50 51 52 51 48 46 45 42 42 42 45 45 40 32 32 31 30 29 29
63 63 62 62 60 62 63 67 69 67 68 66 67 65 62 60 59 52 56 54 52 50 49 48 47 46 47 47 47 45 43 41 38 39 41 40 40 39 38 31 31 30 29 28
63 59 59 62 60 58 59 61 59 64 66 65 63 63 61 57 53 54 52 52 51 48 46 45 43 40 42 43 41 38 37 31 40 39 38 37 37 35 35 33 31 32 30 29
61 60 60 59 58 57 58 57 57 57 58 58 59 57 56 53 52 51 50 48 47 44 41 39 38 37 39 38 39 38 38 37 36 34 32 31 32 32 32 31 31 31 32 32
59 58 58 56 56 55 55 55 54 52 54 54 54 53 52 52 48 45 45 41 37 34 30 29 31 33 35 36 36 34 30 27 28 32 31 31 30 29 30 29 28 29 29 29
54 52 52 52 53 53 54 54 52 52 51 49 48 48 43 40 35 31 29 28 26 25 26 26 27 31 32 33 34 33 33 31 22 30 29 28 28 27 27 27 26 26 26 27
57 57 56 55 52 49 48 47 46 43 39 34 32 31 29 28 25 24 25 25 24 24 25 27 28 29 29 30 30 29 29 28 28 27 27 26 25 25 25 24 24 24 25 25
50 47 48 46 42 39 35 32 31 30 31 30 28 27 27 26 26 25 25 23 22 22 23 26 26 28 27 24 27 28 26 25 26 26 25 23 23 25 23 23 22 22 22 21
37 35 33 32 32 32 30 31 31 30 30 29 28 26 25 25 25 25 26 25 27 27 28 27 27 27 26 24 23 27 25 24 24 23 23 20 21 21 21 20 20 20 19 19
30 31 30 31 31 31 32 32 32 31 31 30 28 26 25 26 27 26 26 25 26 28 27 26 28 27 27 25 25 25 24 23 22 22 21 20 20 20 19 19 18 18 17 17
32 32 31 32 32 31 32 32 31 29 28 27 26 26 25 26 25 26 28 27 27 27 28 28 26 20 22 19 25 23 23 22 21 20 20 19 18 17 16 16 16 16 16 15
31 32 32 31 30 30 30 30 29 28 27 27 27 29 29 31 31 29 25 28 28 26 29 24 20 18 18 21 22 21 20 19 19 18 18 17 16 15 15 14 14 14 13 13
32 32 33 34 34 32 29 30 29 28 26 27 27 28 31 28 27 29 27 25 24 24 22 20 19 17 15 20 20 19 18 18 17 17 16 15 15 15 14 14 13 13 13 12
32 33 33 32 32 31 32 32 31 31 30 29 29 29 29 28 26 25 25 23 21 23 22 16 16 16 19 19 18 17 16 16 16 15 14 13 13 13 13 13 12 12 10 9
31 30 31 32 32 32 32 31 28 29 29 26 25 25 25 25 25 24 23 22 21 21 20 20 18 18 17 17 16 15 15 15 14 14 12 12 12 12 11 11 11 10 9 9
30 29 29 27 28 28 27 27 25 23 24 25 23 25 25 24 23 23 21 21 20 20 19 18 18 17 16 14 14 14 14 13 13 12 11 10 10 10 9 9 8 8 6 5
MSLP
1000.70 1000.21 999.96 1000.04 1000.40 1000.83 1000.87 1001.08 1000.93 1000.76 1000.10 999.64 999.34 999.65 999.59 999.89 1000.10 1000.88 1001.39 1001.69 1002.04 1002.46 1003.52 1004.59 1005.71 1006.96 1008.81 1009.94 1010.61 1011.33 1012.15 1013.14 1014.14 1015.01 1015.82 1016.47 1017.02 1017.81 1018.40 1018.99 1019.61 1020.15 1020.79 1021.09
1000.59 1000.53 1000.24 999.91 999.92 1000.03 999.97 1000.01 1000.03 1000.03 999.63 999.40 999.26 999.49 999.87 1000.44 1000.99 1001.49 1002.19 1002.59 1002.73 1003.19 1003.95 1005.15 1006.74 1007.89 1009.75 1010.95 1011.82 1012.46 1012.98 1013.93 1014.93 1015.63 1016.40 1017.00 1017.61 1018.27 1018.86 1019.27 1019.88 1020.35 1020.69 1021.02
1000.68 1000.71 1000.47 999.85 999.82 999.78 999.64 999.56 999.57 999.40 999.27 999.21 999.02 999.35 999.91 1000.45 1001.36 1002.39 1003.16 1003.81 1004.09 1004.44 1005.37 1006.54 1007.67 1008.92 1010.30 1011.50 1012.45 1013.39 1014.17 1014.71 1015.37 1015.91 1016.72 1017.45 1018.02 1018.60 1019.11 1019.54 1019.93 1020.22 1020.32 1020.60
1001.48 1001.66 1000.34 999.98 1000.02 999.70 999.37 999.13 998.99 999.04 998.98 998.98 999.09 999.37 1000.51 1001.44 1001.88 1003.25 1004.24 1004.84 1005.40 1006.06 1006.87 1007.74 1008.58 1009.68 1010.88 1011.85 1012.72 1013.43 1014.06 1014.74 1015.63 1016.29 1016.98 1017.71 1018.26 1018.80 1019.23 1019.50 1019.49 1019.51 1019.60 1019.58
1001.50 1001.23 1000.61 999.55 999.80 999.77 999.20 998.78 998.56 998.37 998.41 998.55 998.97 1000.11 1001.20 1002.40 1002.92 1003.94 1004.96 1005.66 1006.28 1007.01 1007.79 1008.55 1009.23 1009.91 1010.71 1011.60 1012.48 1013.31 1014.20 1015.03 1015.74 1016.39 1017.22 1017.86 1018.38 1018.76 1018.95 1019.18 1018.95 1018.96 1019.30 1019.68
1001.98 1001.22 999.86 999.80 999.23 999.51 999.06 998.13 998.26 998.04 998.02 998.61 999.64 1000.58 1000.75 1002.61 1003.79 1004.96 1005.85 1006.32 1006.92 1007.55 1008.23 1009.02 1009.82 1010.55 1011.21 1012.03 1012.97 1014.06 1015.02 1015.72 1016.46 1017.09 1017.38 1017.63 1018.09 1017.94 1018.22 1018.54 1018.87 1019.21 1019.55 1020.00
1001.77 1000.82 999.43 998.67 998.43 998.92 998.90 998.47 997.81 997.71 997.92 998.68 999.75 1000.79 1002.04 1003.69 1004.77 1005.56 1006.27 1006.88 1007.52 1008.09 1008.77 1009.62 1010.52 1011.17 1011.77 1012.64 1013.46 1014.41 1015.15 1015.92 1016.51 1016.85 1016.79 1017.26 1017.74 1018.16 1018.51 1018.81 1019.25 1019.76 1020.23 1020.44
1001.56 1000.55 999.64 999.00 999.34 998.82 998.18 998.07 997.98 998.00 998.27 999.04 1000.37 1002.17 1003.30 1004.36 1005.29 1006.03 1006.67 1007.50 1007.89 1008.52 1009.34 1010.27 1010.86 1011.50 1012.14 1013.01 1013.93 1014.72 1015.36 1015.97 1016.33 1016.95 1017.45 1017.78 1018.09 1018.55 1018.86 1019.07 1019.57 1020.00 1020.54 1020.78
1000.28 999.73 999.22 998.91 998.29 998.42 998.46 998.36 998.10 998.37 998.48 999.34 1001.07 1002.40 1003.60 1004.55 1005.58 1006.32 1007.09 1007.70 1008.38 1009.07 1009.95 1010.68 1011.29 1011.86 1012.53 1013.60 1014.52 1015.15 1015.76 1016.44 1017.07 1017.59 1018.04 1018.38 1018.60 1018.94 1019.10 1019.48 1020.03 1020.44 1020.85 1021.01
1000.13 999.35 998.94 999.07 998.97 998.86 998.82 998.85 998.65 999.10 999.10 999.87 1001.16 1002.61 1003.59 1004.53 1005.48 1006.30 1007.09 1007.94 1008.76 1009.63 1010.53 1011.30 1012.07 1012.83 1013.69 1014.36 1015.14 1015.69 1016.36 1017.07 1017.76 1018.18 1018.67 1019.06 1019.18 1019.62 1019.82 1020.41 1020.82 1021.08 1021.26 1021.52
999.30 999.33 999.01 999.22 999.43 999.05 998.94 999.27 999.36 999.44 999.82 1000.16 1001.40 1002.65 1003.69 1004.63 1005.51 1006.43 1007.43 1008.37 1009.33 1010.26 1011.36 1012.39 1013.27 1014.17 1014.75 1015.18 1015.55 1016.32 1017.05 1017.68 1018.19 1018.73 1019.04 1019.32 1019.86 1020.47 1021.06 1021.86 1022.38 1022.22 1022.07 1022.45
998.80 998.89 998.99 999.20 999.79 999.75 999.17 999.19 999.73 1000.19 1000.24 1000.38 1001.44 1002.50 1003.59 1004.64 1005.77 1006.95 1008.03 1009.18 1010.28 1011.50 1012.61 1013.75 1014.62 1015.29 1015.67 1016.11 1016.48 1017.16 1017.74 1018.32 1018.97 1019.30 1019.76 1020.00 1020.24 1020.97 1022.23 1022.70 1023.09 1023.30 1023.46 1023.56
998.93 999.80 1000.01 1000.15 1000.51 1000.58 1000.36 1000.04 1000.11 1000.48 1000.77 1001.05 1001.77 1002.81 1004.30 1005.19 1006.33 1007.62 1008.86 1010.07 1011.28 1012.56 1013.85 1014.76 1015.65 1016.41 1017.08 1017.64 1017.85 1018.10 1018.65 1019.33 1019.87 1020.04 1020.14 1020.66 1020.97 1021.27 1021.50 1022.74 1022.88 1022.98 1023.20 1023.46
999.86 1000.47 1000.33 1000.40 1000.65 1001.43 1001.31 1001.26 1001.47 1001.51 1001.45 1002.05 1002.81 1003.69 1005.13 1006.41 1007.86 1008.82 1010.12 1011.34 1012.66 1013.97 1015.18 1016.14 1016.94 1017.78 1018.30 1018.79 1019.20 1019.88 1020.26 1020.63 1020.25 1020.62 1020.82 1021.36 1021.54 1021.76 1021.99 1022.20 1022.43 1022.38 1022.87 1023.00
1000.01 1000.68 1000.98 1001.44 1001.85 1002.08 1002.31 1002.59 1002.61 1002.77 1003.44 1004.06 1004.65 1005.50 1006.82 1008.01 1009.14 1010.15 1011.53 1013.02 1014.35 1015.55 1016.77 1017.49 1018.23 1018.99 1019.50 1019.63 1019.88 1020.09 1020.76 1021.09 1021.33 1021.56 1021.91 1022.31 1022.24 1022.29 1022.31 1022.36 1022.46 1022.40 1022.25 1022.35
1000.35 1001.09 1001.49 1001.80 1002.25 1002.90 1003.35 1003.75 1004.15 1004.74 1005.29 1006.04 1006.82 1007.67 1008.83 1010.05 1011.49 1012.75 1013.84 1015.14 1016.34 1017.50 1018.77 1019.25 1019.80 1020.41 1020.40 1020.43 1020.70 1021.16 1022.12 1022.63 1022.56 1022.17 1022.24 1022.39 1022.52 1022.64 1022.55 1022.52 1022.63 1022.57 1022.39 1022.38
1001.13 1001.67 1002.26 1002.73 1003.35 1004.00 1004.52 1005.27 1005.85 1006.50 1007.32 1008.18 1009.24 1010.23 1011.44 1012.87 1014.67 1016.20 1017.40 1018.12 1018.66 1019.17 1019.98 1020.54 1021.07 1021.53 1021.69 1021.64 1021.56 1021.78 1022.12 1022.72 1023.40 1022.78 1022.84 1023.01 1023.12 1023.06 1023.00 1022.94 1023.03 1022.84 1022.68 1022.84
1002.37 1002.64 1003.29 1004.02 1004.99 1005.92 1006.75 1007.43 1008.07 1008.99 1010.19 1011.33 1012.10 1013.42 1014.83 1016.00 1016.97 1018.00 1019.00 1019.74 1020.16 1020.71 1021.19 1021.69 1022.01 1022.26 1022.54 1022.67 1022.66 1022.94 1023.12 1023.23 1023.31 1023.33 1023.44 1023.51 1023.71 1023.63 1023.39 1023.43 1023.33 1023.04 1022.88 1022.95
1004.52 1005.00 1005.74 1006.63 1007.50 1008.59 1009.47 1010.34 1011.25 1012.01 1012.74 1013.48 1014.31 1015.47 1016.56 1017.80 1018.81 1019.22 1019.80 1020.40 1020.92 1021.44 1022.18 1022.60 1022.85 1022.86 1023.25 1023.71 1023.46 1023.61 1023.72 1023.79 1023.69 1023.58 1023.80 1023.88 1023.79 1023.48 1023.62 1023.61 1023.57 1023.51 1023.35 1023.10
1007.17 1007.96 1008.63 1009.43 1009.88 1010.84 1011.44 1012.20 1012.88 1013.73 1014.62 1015.26 1016.11 1017.25 1018.20 1019.09 1019.70 1020.08 1020.60 1021.14 1021.31 1021.89 1022.55 1023.09 1023.25 1023.47 1023.81 1024.27 1024.28 1024.00 1024.15 1024.14 1024.02 1023.92 1023.87 1024.14 1023.90 1023.78 1023.87 1023.74 1023.74 1023.57 1023.40 1023.19
1009.24 1009.62 1010.35 1011.21 1011.95 1012.57 1013.32 1013.88 1014.40 1015.23 1016.27 1016.84 1017.39 1018.34 1019.29 1020.02 1020.68 1021.14 1021.27 1021.69 1022.61 1022.89 1023.34 1023.64 1023.62 1023.84 1024.19 1024.38 1024.37 1024.28 1024.25 1024.18 1024.04 1023.97 1023.97 1023.93 1023.98 1023.91 1023.82 1023.80 1023.75 1023.69 1023.51 1023.37
1010.75 1011.24 1012.00 1012.88 1013.38 1014.12 1014.86 1015.43 1016.06 1016.82 1017.55 1018.22 1019.11 1019.76 1020.30 1020.88 1021.47 1021.69 1021.69 1022.09 1023.13 1023.43 1023.51 1023.77 1024.21 1024.93 1024.93 1025.06 1024.43 1024.45 1024.37 1024.30 1024.28 1024.21 1024.11 1024.09 1024.11 1024.08 1024.02 1023.97 1023.92 1023.84 1023.77 1023.67
1012.52 1013.11 1013.80 1014.35 1014.79 1015.51 1016.30 1017.08 1017.83 1018.30 1018.80 1019.40 1019.89 1020.27 1020.57 1020.96 1021.35 1021.62 1022.32 1023.11 1023.44 1023.94 1023.86 1024.59 1025.29 1025.52 1025.51 1025.07 1024.83 1024.77 1024.66 1024.60 1024.48 1024.43 1024.39 1024.36 1024.34 1024.36 1024.28 1024.18 1024.14 1024.11 1023.93 1023.72
1014.07 1014.62 1015.07 1015.62 1016.03 1016.51 1017.26 1018.56 1019.21 1019.89 1020.26 1020.75 1021.20 1021.42 1021.33 1021.64 1022.32 1022.93 1023.52 1024.05 1024.38 1024.49 1024.84 1025.36 1025.63 1025.82 1025.81 1025.26 1025.09 1024.99 1024.92 1024.78 1024.72 1024.63 1024.57 1024.59 1024.42 1024.31 1024.29 1024.20 1024.21 1024.06 1023.97 1023.82
1015.35 1015.75 1016.32 1016.89 1017.26 1017.85 1018.60 1019.17 1019.75 1020.49 1020.98 1021.50 1021.94 1022.37 1022.66 1022.86 1022.92 1023.64 1024.16 1024.79 1025.16 1025.10 1025.18 1025.93 1026.03 1026.09 1025.72 1025.48 1025.36 1025.30 1025.18 1025.08 1024.94 1025.01 1024.99 1024.79 1024.63 1024.49 1024.34 1024.19 1024.18 1024.09 1024.07 1023.99
1016.87 1017.43 1017.90 1018.35 1018.73 1019.10 1019.68 1020.30 1020.90 1021.44 1021.77 1022.31 1022.85 1023.25 1023.66 1024.02 1024.28 1024.50 1025.00 1025.36 1025.65 1025.75 1025.81 1025.95 1026.06 1026.15 1025.97 1025.75 1025.65 1025.59 1025.45 1025.31 1025.26 1025.16 1025.26 1025.13 1024.91 1024.68 1024.44 1024.31 1024.27 1024.20 1024.10 1023.90
1018.54 1018.99 1019.46 1020.16 1020.76 1021.24 1021.62 1021.99 1022.34 1022.99 1023.23 1023.18 1023.66 1024.05 1024.42 1024.63 1024.97 1025.13 1025.53 1025.73 1025.97 1026.07 1026.18 1026.21 1026.20 1026.21 1026.28 1026.31 1026.18 1025.89 1025.77 1025.65 1025.62 1025.62 1025.60 1025.42 1025.19 1024.97 1024.72 1024.58 1024.53 1024.49 1024.42 1024.22
Wind_Speed
21 19 13 17 19 21 19 18 19 15 18 16 9 8 11 8 2 2 7 7 8 7 9 8 10 10 12 9 9 10 11 11 10 11 10 9 10 10 11 10 10 10 8 7
20 18 18 15 15 16 18 19 18 19 20 14 13 10 7 9 6 6 3 3 3 5 8 9 8 13 12 10 10 11 11 12 11 11 12 11 11 12 11 11 9 7 5 4
17 19 19 18 17 17 16 18 16 17 14 15 12 10 10 12 4 6 4 3 4 6 8 9 9 12 13 13 12 12 12 11 12 12 13 13 12 10 9 8 7 6 6 6
8 1 16 8 15 17 19 18 16 17 17 15 14 12 5 3 6 6 6 7 7 8 9 10 11 13 14 14 14 14 14 14 13 14 13 12 11 9 7 8 8 5 7 5
8 12 14 17 9 9 13 16 16 18 18 15 11 3 7 5 5 8 9 10 10 11 12 13 13 14 15 14 14 15 14 13 13 13 12 10 8 8 6 6 7 3 2 1
6 15 19 13 13 10 13 13 15 16 12 11 3 5 9 14 12 13 12 12 13 14 14 13 13 13 14 14 14 14 13 13 13 11 11 8 8 8 5 3 2 0 1 2
11 9 8 13 13 10 14 9 12 9 7 7 9 5 12 15 14 14 13 14 14 13 13 13 13 13 14 14 14 14 14 12 10 9 7 7 6 5 4 3 2 1 1 3
8 8 12 10 9 11 12 12 6 7 7 7 8 12 14 15 15 15 16 15 14 13 13 13 14 13 14 14 13 13 12 10 9 8 5 5 5 4 3 2 0 1 1 3
7 5 7 14 10 14 6 7 7 7 7 8 14 14 16 16 16 16 16 14 13 14 14 13 13 12 14 13 13 12 11 10 9 7 6 4 4 3 1 1 1 1 2 3
11 6 14 9 11 10 6 7 6 4 7 10 14 14 17 17 17 16 15 15 14 15 15 13 12 12 12 12 11 11 10 9 7 5 5 3 2 2 2 1 1 1 2 3
18 19 19 13 10 11 11 9 9 8 8 10 13 16 17 17 17 15 15 15 15 14 13 13 12 11 10 10 11 10 9 8 6 5 3 4 4 5 2 6 5 4 4 4
8 9 8 14 5 7 10 11 9 9 10 12 15 17 18 16 15 15 15 15 14 15 14 13 12 11 10 9 9 9 8 6 4 4 3 1 1 5 6 8 7 5 5 4
12 3 5 3 3 5 6 7 6 9 11 11 13 14 16 14 16 14 15 15 15 15 14 13 12 11 9 7 6 7 7 7 5 3 3 2 1 1 3 6 7 9 7 3
3 3 7 5 2 3 3 2 1 5 6 8 11 14 14 13 15 16 15 14 15 15 14 13 13 11 9 9 9 8 7 6 4 3 3 1 2 3 3 4 4 3 9 3
6 5 6 1 1 2 3 3 5 6 5 8 10 13 14 16 16 15 15 15 15 15 14 13 12 11 9 7 7 7 4 4 3 3 3 2 2 3 3 4 5 6 5 4
5 3 3 1 3 4 3 5 6 8 9 10 11 12 14 14 16 16 15 15 14 12 13 11 11 9 6 6 6 6 6 5 4 1 0 1 2 3 4 4 5 6 5 6
6 4 2 3 5 5 6 7 7 9 11 12 13 13 17 17 18 15 14 13 12 13 11 10 9 7 6 5 4 3 2 4 3 2 2 3 3 4 4 4 5 6 6 5
6 6 6 7 8 9 11 12 12 13 15 18 19 18 15 12 13 13 13 13 12 11 10 9 7 7 6 6 5 4 2 2 2 2 3 3 4 5 4 5 6 7 7 7
12 15 14 15 13 15 14 14 14 15 15 15 16 15 15 13 13 13 12 11 10 10 8 7 7 6 7 7 4 3 3 3 3 3 3 3 5 4 5 6 6 7 8 7
18 17 17 16 16 14 14 13 15 15 14 16 16 14 13 11 11 11 9 9 7 7 8 7 6 6 5 5 5 3 3 4 4 4 4 4 6 5 7 6 6 7 7 8
15 17 18 16 16 15 14 13 14 16 15 13 14 14 13 12 10 9 9 7 8 7 8 5 5 4 4 4 4 3 4 4 5 5 5 6 6 7 7 7 7 7 8 8
15 16 16 16 17 18 16 16 16 14 15 14 13 12 12 11 9 10 10 8 6 5 4 4 5 6 4 6 3 4 5 6 6 6 6 6 7 7 7 7 7 7 8 8
15 17 17 16 17 19 18 16 14 14 14 13 11 11 9 7 5 4 6 6 5 3 3 6 5 3 4 5 4 5 6 6 6 6 7 7 7 7 7 8 8 8 8 8
17 17 18 17 16 17 19 16 15 15 13 13 11 8 6 6 7 6 7 8 7 4 6 5 4 4 6 4 4 5 6 7 6 6 7 8 7 7 7 8 8 8 8 9
17 17 17 15 15 13 15 14 13 12 12 12 10 9 9 8 7 6 6 5 5 5 4 5 3 4 5 5 6 6 6 7 7 7 8 7 7 8 8 8 8 9 9 9
16 13 13 16 12 10 10 9 9 8 7 8 7 7 7 6 5 5 5 5 5 5 5 5 5 5 7 7 8 8 7 7 7 7 7 8 9 9 9 9 8 9 9 9
14 14 12 12 11 11 10 10 9 9 8 7 7 7 6 6 5 5 4 5 6 5 6 6 6 6 6 6 8 8 8 7 8 7 8 8 8 8 9 8 9 9 9 9
Wind_Direction
230 243 234 214 214 226 233 241 245 253 259 271 268 303 303 342 276 243 231 225 223 211 158 149 142 141 109 106 104 107 104 106 110 110 110 113 112 112 112 119 124 129 138 151
236 233 242 241 237 236 241 235 247 250 253 269 288 280 257 281 269 251 272 282 245 206 151 137 128 116 111 108 109 111 111 112 116 117 117 115 115 121 122 124 130 130 125 156
230 234 235 238 238 250 247 246 242 252 268 267 272 282 271 262 202 257 181 170 166 139 130 136 128 123 125 124 117 114 118 124 123 122 119 120 122 122 124 119 126 151 182 200
207 252 230 235 234 241 243 253 245 245 257 270 285 282 348 311 248 187 162 139 122 120 124 128 129 121 128 127 130 132 129 123 126 124 124 129 128 125 131 160 178 199 211 197
208 220 244 234 199 218 239 250 254 259 263 269 290 79 217 219 226 156 147 135 131 129 127 129 132 133 130 132 130 128 127 127 127 129 129 129 135 153 167 191 202 164 146 269
181 232 237 236 237 214 255 254 256 267 266 277 153 254 302 153 146 142 148 142 139 136 134 132 128 129 131 130 124 124 127 128 128 133 143 147 169 180 139 128 135 116 19 326
217 238 245 224 221 166 222 242 260 261 273 250 226 269 125 145 155 155 150 144 138 138 136 131 134 135 129 131 129 130 129 129 130 154 143 116 116 125 133 125 82 103 251 344
229 237 232 129 125 190 215 251 260 243 263 236 140 138 146 155 156 152 150 145 145 137 132 137 141 140 136 129 129 130 129 129 129 115 121 126 136 132 144 124 261 280 43 297
219 219 265 181 220 219 277 304 263 274 246 192 157 168 167 163 163 160 155 151 147 140 140 144 142 142 133 125 134 138 132 124 120 120 116 111 119 113 173 39 346 22 295 304
256 264 246 236 248 263 283 253 278 263 252 200 179 178 172 168 167 163 159 154 149 145 145 141 136 129 133 134 135 132 127 123 116 122 109 92 115 65 42 20 358 312 308 317
252 263 259 245 260 263 250 233 241 216 228 203 181 182 177 174 168 164 157 153 152 147 142 134 129 128 132 133 133 130 128 128 123 120 116 119 79 29 66 65 31 350 19 339
238 255 248 257 11 350 254 244 228 245 228 190 191 184 178 172 167 161 156 152 148 142 140 133 128 123 124 129 129 134 131 115 95 115 102 43 97 146 89 96 112 99 81 21
255 340 316 336 316 342 311 287 258 238 234 205 185 177 180 165 161 149 151 144 143 140 133 132 124 112 92 81 94 106 112 113 111 106 94 55 344 309 282 170 187 173 170 186
202 275 264 221 350 3 348 20 16 229 222 186 176 161 163 147 137 147 143 139 131 129 127 118 108 97 91 91 90 81 83 32 88 82 71 16 2 339 312 311 304 282 191 218
218 221 284 44 185 65 82 117 132 123 133 137 139 145 150 147 147 137 124 123 125 116 109 106 97 86 78 77 80 81 69 61 55 70 63 14 325 306 295 293 294 294 296 274
154 208 177 167 94 92 116 125 123 129 140 136 137 134 132 133 111 113 116 113 121 102 86 85 86 75 68 74 89 103 85 53 6 61 116 305 303 296 292 297 297 293 299 309
169 174 155 148 124 120 109 105 122 123 119 118 124 115 97 97 87 87 88 91 96 95 94 95 92 80 64 56 59 68 54 100 2 293 332 336 315 297 305 300 296 297 301 322
77 77 78 105 116 111 98 87 88 86 83 77 82 84 87 92 101 100 98 96 91 88 88 91 93 84 69 54 47 46 36 12 352 336 322 303 327 306 306 300 296 297 306 307
81 80 78 77 79 89 94 94 93 95 96 95 96 99 102 105 117 114 112 105 105 106 104 104 103 94 79 48 16 45 26 353 320 304 308 306 261 289 296 293 304 306 302 303
82 82 82 85 82 93 96 95 98 95 98 103 102 100 99 100 103 106 102 86 85 106 115 116 103 86 81 60 355 35 354 323 315 311 305 322 292 310 296 290 291 295 303 304
88 86 86 86 87 86 88 94 97 97 98 96 98 97 99 99 99 112 113 97 103 101 99 94 63 70 74 354 288 355 321 314 306 307 308 305 301 289 301 300 303 305 304 310
87 89 91 94 91 87 82 86 85 85 86 85 89 96 100 96 87 69 45 101 110 132 110 97 77 40 33 321 328 324 325 319 318 309 301 300 302 304 302 305 304 304 310 305
86 90 89 89 90 88 83 76 77 84 88 91 95 94 86 81 83 101 102 95 117 79 91 72 80 48 354 297 339 323 315 314 303 306 304 302 302 305 303 304 305 306 300 308
92 92 94 94 94 89 87 88 88 87 85 83 70 57 80 94 82 74 76 81 84 67 60 64 58 10 329 317 319 320 315 313 312 308 316 311 296 296 300 305 303 301 306 304
91 91 90 91 89 88 94 95 93 89 87 84 78 71 60 39 56 70 84 89 62 5 76 84 25 351 307 327 323 323 317 314 321 323 302 301 310 305 303 305 306 307 313 303
79 74 72 69 70 73 73 73 73 66 80 85 69 65 65 63 71 75 71 51 42 15 13 352 8 336 330 337 339 322 317 317 315 319 325 312 312 310 308 309 308 306 307 309
80 82 82 76 66 62 59 60 67 58 43 52 69 52 48 51 61 50 28 29 10 0 355 355 344 355 334 347 319 325 327 320 324 329 319 306 311 311 312 313 313 314 311 306